Location: �perlecques
(50.8057°N, 2.1521°E)
Time: 08:33:12
(UTC+00:00)

STARS - Pass Details

Date: 06 April 2023
Orbit: 616 x 630 km, 98.1° (Epoch: 03 June)

Event Time Altitude Azimuth Distance (km) Brightness Sun altitude
Rises 23:48:25 0° 10° (N) 2,921 ? -32.5°
Reaches altitude 10° 23:50:40 10° 5° (N) 2,012 ? -32.5°
Enters shadow 23:52:56 28° 350° (N) 1,179 ? -32.5°
